| time (UTC) | temp F | wind direction | speed knots | gust knots | rain 1hr in | rain 24hr in | rain mn in | humidity % | barometer mb |
| 20260508135456 | 48 | 293 | 8.7 | 23.5 | 0.00 | 0.07 | 0.09 | 80 | 1002.7 |
| 20260508134945 | 48 | 248 | 9.6 | 23.5 | 0.00 | 0.07 | 0.09 | 80 | 1002.7 |
| 20260508134432 | 48 | 293 | 8.7 | 19.1 | 0.00 | 0.07 | 0.09 | 81 | 1002.9 |
| 20260508133923 | 48 | 225 | 9.6 | 19.1 | 0.00 | 0.07 | 0.09 | 81 | 1002.8 |
| 20260508133413 | 48 | 270 | 9.6 | 20.9 | 0.00 | 0.07 | 0.09 | 81 | 1002.6 |
| 20260508132902 | 48 | 248 | 7.0 | 21.7 | 0.00 | 0.07 | 0.09 | 82 | 1002.6 |
| 20260508132357 | 48 | 293 | 9.6 | 21.7 | 0.00 | 0.07 | 0.09 | 82 | 1002.8 |
| 20260508131843 | 48 | 248 | 12.2 | 18.2 | 0.00 | 0.07 | 0.09 | 82 | 1002.7 |
| 20260508131333 | 48 | 225 | 7.0 | 18.2 | 0.00 | 0.07 | 0.09 | 83 | 1002.5 |
| 20260508130822 | 48 | 248 | 8.7 | 19.1 | 0.00 | 0.07 | 0.09 | 83 | 1002.5 |
| 20260508125802 | 47 | 225 | 7.0 | 17.4 | 0.00 | 0.07 | 0.09 | 84 | 1002.4 |
| 20260508125253 | 47 | 225 | 7.8 | 17.4 | 0.00 | 0.07 | 0.09 | 85 | 1002.3 |
| 20260508124742 | 47 | 270 | 6.1 | 13.9 | 0.00 | 0.07 | 0.09 | 85 | 1002.2 |
| 20260508124232 | 47 | 315 | 6.1 | 20.9 | 0.00 | 0.07 | 0.09 | 86 | 1002.1 |
| 20260508123721 | 47 | 293 | 6.1 | 20.9 | 0.00 | 0.07 | 0.09 | 86 | 1002.0 |
| 20260508122701 | 47 | 248 | 5.2 | 14.8 | 0.00 | 0.07 | 0.09 | 87 | 1001.6 |
| 20260508122152 | 47 | 203 | 5.2 | 14.8 | 0.00 | 0.07 | 0.09 | 87 | 1001.7 |
| 20260508121646 | 47 | 293 | 8.7 | 14.8 | 0.00 | 0.07 | 0.09 | 87 | 1001.7 |
| 20260508121131 | 47 | 270 | 6.1 | 13.9 | 0.00 | 0.07 | 0.09 | 88 | 1001.7 |
| 20260508120621 | 47 | 293 | 4.3 | 13.9 | 0.00 | 0.07 | 0.09 | 88 | 1001.7 |
| 20260508120110 | 47 | 248 | 4.3 | 13.9 | 0.00 | 0.07 | 0.09 | 88 | 1001.9 |
| 20260508115600 | 46 | 248 | 5.2 | 9.6 | 0.00 | 0.07 | 0.09 | 89 | 1002.0 |
| 20260508115051 | 46 | 270 | 5.2 | 9.6 | 0.00 | 0.07 | 0.09 | 89 | 1001.5 |
| 20260508114540 | 46 | 270 | 5.2 | 11.3 | 0.00 | 0.07 | 0.09 | 90 | 1001.3 |
| 20260508114029 | 46 | 225 | 6.1 | 11.3 | 0.00 | 0.07 | 0.09 | 90 | 1001.4 |
| 20260508113521 | 46 | 270 | 4.3 | 9.6 | 0.00 | 0.07 | 0.09 | 90 | 1001.0 |
| 20260508113023 | 46 | 293 | 7.0 | 13.9 | 0.00 | 0.07 | 0.09 | 90 | 1001.6 |
| 20260508112500 | 46 | 293 | 3.5 | 13.9 | 0.00 | 0.07 | 0.09 | 91 | 1001.3 |
| 20260508111950 | 46 | 270 | 3.5 | 12.2 | 0.00 | 0.07 | 0.09 | 91 | 1001.2 |
| 20260508111440 | 46 | 270 | 5.2 | 13.9 | 0.00 | 0.07 | 0.09 | 91 | 1001.1 |
| 20260508110930 | 46 | 248 | 4.3 | 13.9 | 0.00 | 0.07 | 0.09 | 91 | 1001.1 |
| 20260508110419 | 46 | 248 | 6.1 | 11.3 | 0.00 | 0.07 | 0.09 | 91 | 1000.9 |
| 20260508105359 | 46 | 270 | 4.3 | 13.9 | 0.00 | 0.07 | 0.09 | 91 | 1000.7 |
| 20260508104850 | 46 | 225 | 6.1 | 14.8 | 0.00 | 0.07 | 0.09 | 91 | 1001.0 |
| 20260508104340 | 46 | 270 | 5.2 | 15.6 | 0.00 | 0.07 | 0.09 | 91 | 1000.8 |
| 20260508103828 | 46 | 293 | 6.1 | 15.6 | 0.00 | 0.07 | 0.09 | 91 | 1000.7 |
| 20260508103319 | 46 | 270 | 6.1 | 15.6 | 0.00 | 0.07 | 0.09 | 91 | 1000.5 |
| 20260508102809 | 46 | 225 | 7.0 | 13.0 | 0.00 | 0.07 | 0.09 | 91 | 1000.6 |
| 20260508102259 | 46 | 248 | 5.2 | 19.1 | 0.01 | 0.07 | 0.09 | 91 | 1000.4 |
| 20260508101748 | 46 | 248 | 5.2 | 19.1 | 0.01 | 0.07 | 0.09 | 92 | 1000.3 |
| 20260508101241 | 46 | 225 | 7.8 | 17.4 | 0.01 | 0.07 | 0.09 | 92 | 1000.3 |
| 20260508100728 | 46 | 248 | 6.1 | 17.4 | 0.01 | 0.07 | 0.09 | 92 | 1000.2 |
| 20260508100218 | 46 | 270 | 7.0 | 13.0 | 0.01 | 0.07 | 0.09 | 92 | 1000.3 |
| 20260508095709 | 46 | 270 | 7.0 | 13.0 | 0.01 | 0.07 | 0.09 | 92 | 1000.1 |
| 20260508095157 | 46 | 248 | 5.2 | 12.2 | 0.01 | 0.07 | 0.09 | 93 | 1000.2 |
| 20260508094648 | 46 | 270 | 3.5 | 9.6 | 0.01 | 0.07 | 0.09 | 93 | 1000.3 |
| 20260508093629 | 46 | 270 | 5.2 | 9.6 | 0.02 | 0.07 | 0.09 | 93 | 1000.1 |
| 20260508092607 | 45 | 293 | 3.5 | 9.6 | 0.04 | 0.07 | 0.09 | 93 | 1000.0 |
| 20260508092057 | 45 | 270 | 4.3 | 13.0 | 0.02 | 0.06 | 0.08 | 93 | 999.8 |
| 20260508091557 | 45 | 248 | 4.3 | 13.0 | 0.02 | 0.06 | 0.08 | 93 | 999.9 |
| 20260508091037 | 45 | 248 | 4.3 | 12.2 | 0.02 | 0.06 | 0.08 | 93 | 999.8 |
| 20260508090527 | 45 | 248 | 5.2 | 12.2 | 0.04 | 0.06 | 0.08 | 93 | 999.7 |
| 20260508090017 | 45 | 270 | 6.1 | 12.2 | 0.04 | 0.06 | 0.08 | 93 | 999.7 |
| 20260508085507 | 45 | 248 | 7.0 | 12.2 | 0.04 | 0.06 | 0.08 | 93 | 999.5 |
| 20260508084956 | 45 | 270 | 5.2 | 12.2 | 0.06 | 0.06 | 0.08 | 93 | 999.6 |
| 20260508084446 | 45 | 293 | 3.5 | 13.0 | 0.05 | 0.05 | 0.07 | 93 | 999.7 |
| 20260508083936 | 45 | 248 | 3.5 | 13.0 | 0.05 | 0.05 | 0.07 | 93 | 999.8 |
| 20260508083426 | 45 | 203 | 4.3 | 13.0 | 0.04 | 0.04 | 0.06 | 93 | 999.6 |
| 20260508082916 | 45 | 248 | 5.2 | 15.6 | 0.04 | 0.04 | 0.06 | 92 | 999.8 |
| 20260508081346 | 45 | 270 | 5.2 | 11.3 | 0.04 | 0.04 | 0.06 | 92 | 999.9 |
| 20260508080836 | 45 | 248 | 6.1 | 11.3 | 0.04 | 0.04 | 0.06 | 92 | 999.9 |
| 20260508080326 | 45 | 270 | 6.1 | 13.9 | 0.02 | 0.02 | 0.05 | 92 | 999.8 |
| 20260508075815 | 45 | 270 | 4.3 | 13.9 | 0.02 | 0.02 | 0.05 | 92 | 1000.0 |
| 20260508075308 | 45 | 270 | 5.2 | 14.8 | 0.01 | 0.01 | 0.04 | 92 | 1000.0 |
| 20260508074755 | 45 | 270 | 3.5 | 14.8 | 0.00 | 0.00 | 0.02 | 92 | 999.8 |
| 20260508074246 | 45 | 270 | 3.5 | 9.6 | 0.00 | 0.00 | 0.02 | 92 | 1000.0 |
| 20260508073735 | 45 | 293 | 4.3 | 9.6 | 0.00 | 0.00 | 0.02 | 91 | 1000.0 |
| 20260508073224 | 45 | 270 | 4.3 | 11.3 | 0.00 | 0.00 | 0.02 | 91 | 999.8 |
| 20260508072714 | 45 | 270 | 3.5 | 17.4 | 0.00 | 0.00 | 0.02 | 91 | 1000.0 |
| 20260508071657 | 45 | 270 | 5.2 | 18.2 | 0.00 | 0.00 | 0.02 | 91 | 1000.0 |
| 20260508071145 | 45 | 293 | 5.2 | 18.2 | 0.00 | 0.00 | 0.02 | 91 | 999.9 |
| 20260508070633 | 45 | 225 | 5.2 | 0.0 | 0.00 | 0.00 | 0.02 | 91 | 999.8 |
| 20260508065557 | 45 | 248 | 7.0 | 14.8 | 0.01 | 0.05 | 0.02 | 91 | 999.9 |
| 20260508065046 | 46 | 203 | 4.3 | 14.8 | 0.01 | 0.05 | 0.02 | 91 | 1000.0 |
| 20260508064536 | 46 | 248 | 4.3 | 14.8 | 0.01 | 0.05 | 0.02 | 91 | 1000.0 |
| 20260508064025 | 46 | 293 | 3.5 | 13.9 | 0.00 | 0.04 | 0.01 | 91 | 1000.0 |
| 20260508062455 | 46 | 203 | 6.1 | 12.2 | 0.00 | 0.04 | 0.01 | 90 | 1000.1 |
| 20260508061945 | 46 | 293 | 3.5 | 17.4 | 0.00 | 0.04 | 0.01 | 89 | 1000.1 |
| 20260508061435 | 46 | 270 | 5.2 | 20.0 | 0.00 | 0.04 | 0.01 | 89 | 1000.2 |
| 20260508060925 | 46 | 293 | 10.4 | 20.0 | 0.00 | 0.04 | 0.01 | 89 | 1000.3 |
| 20260508060415 | 46 | 248 | 7.0 | 15.6 | 0.00 | 0.04 | 0.01 | 89 | 1000.0 |
| 20260508055354 | 46 | 270 | 5.2 | 15.6 | 0.00 | 0.04 | 0.01 | 89 | 1000.2 |
| 20260508054845 | 46 | 180 | 11.3 | 17.4 | 0.00 | 0.04 | 0.01 | 89 | 1000.0 |
| 20260508053824 | 46 | 248 | 7.0 | 17.4 | 0.00 | 0.04 | 0.01 | 88 | 1000.0 |
| 20260508053315 | 47 | 293 | 7.8 | 18.2 | 0.00 | 0.04 | 0.01 | 88 | 999.8 |
| 20260508052803 | 47 | 225 | 7.8 | 18.2 | 0.00 | 0.04 | 0.01 | 88 | 1000.0 |
| 20260508052254 | 47 | 248 | 7.0 | 14.8 | 0.00 | 0.04 | 0.01 | 87 | 1000.0 |
| 20260508051234 | 48 | 270 | 7.8 | 17.4 | 0.00 | 0.04 | 0.01 | 87 | 1000.0 |
| 20260508050724 | 48 | 225 | 11.3 | 21.7 | 0.00 | 0.04 | 0.01 | 86 | 1000.0 |
| 20260508050214 | 48 | 270 | 12.2 | 21.7 | 0.00 | 0.04 | 0.01 | 86 | 1000.1 |
| 20260508045704 | 47 | 293 | 11.3 | 19.1 | 0.00 | 0.04 | 0.01 | 86 | 1000.0 |
| 20260508045153 | 47 | 225 | 10.4 | 19.1 | 0.00 | 0.04 | 0.01 | 87 | 1000.1 |
| 20260508044644 | 47 | 248 | 9.6 | 19.1 | 0.00 | 0.04 | 0.01 | 88 | 999.9 |
| 20260508044133 | 47 | 225 | 13.9 | 19.1 | 0.00 | 0.04 | 0.01 | 89 | 999.9 |
| 20260508043622 | 47 | 248 | 7.0 | 15.6 | 0.00 | 0.04 | 0.01 | 89 | 999.7 |
| 20260508043113 | 48 | 225 | 8.7 | 18.2 | 0.00 | 0.04 | 0.01 | 89 | 999.8 |
| 20260508042602 | 47 | 248 | 13.0 | 18.2 | 0.00 | 0.04 | 0.01 | 90 | 999.8 |
| 20260508042105 | 48 | 248 | 7.8 | 18.2 | 0.00 | 0.04 | 0.01 | 90 | 1000.1 |
| 20260508041543 | 48 | 248 | 11.3 | 19.1 | 0.00 | 0.04 | 0.01 | 91 | 999.6 |
| 20260508041033 | 48 | 248 | 9.6 | 19.1 | 0.00 | 0.04 | 0.01 | 91 | 999.8 |
| 20260508040525 | 48 | 270 | 9.6 | 19.1 | 0.00 | 0.04 | 0.01 | 91 | 999.8 |
| 20260508040012 | 48 | 270 | 9.6 | 19.1 | 0.01 | 0.04 | 0.01 | 91 | 999.7 |
| 20260508035503 | 48 | 248 | 7.0 | 14.8 | 0.01 | 0.04 | 0.01 | 91 | 999.7 |
| 20260508034952 | 49 | 248 | 7.8 | 14.8 | 0.01 | 0.04 | 0.01 | 92 | 999.8 |
| 20260508034443 | 49 | 248 | 7.0 | 18.2 | 0.01 | 0.04 | 0.01 | 91 | 999.5 |
| 20260508033421 | 49 | 248 | 13.0 | 20.9 | 0.02 | 0.04 | 0.01 | 91 | 999.7 |
| 20260508032912 | 49 | 248 | 9.6 | 19.1 | 0.02 | 0.04 | 0.01 | 91 | 999.9 |
| 20260508032401 | 49 | 225 | 13.0 | 19.1 | 0.02 | 0.04 | 0.01 | 91 | 999.7 |
| 20260508031851 | 49 | 225 | 10.4 | 23.5 | 0.02 | 0.04 | 0.01 | 92 | 999.3 |
| 20260508030832 | 49 | 225 | 13.0 | 20.0 | 0.02 | 0.04 | 0.01 | 92 | 999.2 |
| 20260508030337 | 50 | 270 | 9.6 | 17.4 | 0.01 | 0.02 | 0.01 | 92 | 999.2 |
| 20260508025813 | 50 | 225 | 8.7 | 17.4 | 0.01 | 0.02 | 0.05 | 92 | 999.2 |
| 20260508025301 | 50 | 270 | 8.7 | 17.4 | 0.01 | 0.02 | 0.05 | 91 | 999.0 |
| 20260508024750 | 50 | 225 | 12.2 | 20.9 | 0.01 | 0.02 | 0.05 | 91 | 999.0 |
| 20260508024241 | 50 | 225 | 11.3 | 20.9 | 0.01 | 0.02 | 0.05 | 92 | 999.1 |
| 20260508023731 | 50 | 225 | 13.0 | 20.9 | 0.00 | 0.01 | 0.04 | 92 | 999.3 |
| 20260508023220 | 51 | 248 | 9.6 | 20.9 | 0.00 | 0.01 | 0.04 | 92 | 999.1 |
| 20260508022710 | 51 | 248 | 13.9 | 20.9 | 0.00 | 0.01 | 0.04 | 92 | 999.1 |
| 20260508022200 | 51 | 248 | 11.3 | 15.6 | 0.00 | 0.01 | 0.04 | 92 | 999.3 |
| 20260508021651 | 51 | 248 | 7.8 | 18.2 | 0.00 | 0.01 | 0.04 | 92 | 999.4 |
| 20260508020630 | 52 | 270 | 9.6 | 17.4 | 0.00 | 0.01 | 0.04 | 91 | 999.7 |
| 20260508015610 | 52 | 225 | 9.6 | 20.9 | 0.00 | 0.01 | 0.04 | 91 | 999.4 |
| 20260508015100 | 52 | 248 | 10.4 | 20.9 | 0.00 | 0.01 | 0.04 | 92 | 999.9 |
| 20260508014551 | 52 | 248 | 8.7 | 17.4 | 0.00 | 0.01 | 0.04 | 92 | 999.4 |
| 20260508014040 | 52 | 248 | 10.4 | 18.2 | 0.00 | 0.01 | 0.04 | 92 | 999.3 |
| 20260508013529 | 52 | 248 | 11.3 | 18.2 | 0.00 | 0.01 | 0.04 | 92 | 999.5 |
| 20260508012511 | 53 | 225 | 7.8 | 18.2 | 0.00 | 0.01 | 0.04 | 92 | 999.2 |
| 20260508011958 | 53 | 248 | 10.4 | 18.2 | 0.00 | 0.01 | 0.04 | 92 | 998.9 |
| 20260508011450 | 53 | 248 | 7.8 | 15.6 | 0.01 | 0.01 | 0.04 | 92 | 998.7 |
| 20260508010939 | 53 | 203 | 9.6 | 17.4 | 0.01 | 0.01 | 0.04 | 92 | 998.9 |
| 20260508010429 | 53 | 270 | 7.0 | 20.9 | 0.01 | 0.01 | 0.04 | 92 | 998.6 |
| 20260508005918 | 53 | 203 | 12.2 | 20.9 | 0.01 | 0.01 | 0.04 | 92 | 998.8 |
| 20260508005410 | 53 | 225 | 11.3 | 18.2 | 0.01 | 0.01 | 0.04 | 92 | 998.9 |
| 20260508004858 | 53 | 270 | 9.6 | 18.2 | 0.01 | 0.01 | 0.04 | 92 | 998.7 |
| 20260508004348 | 54 | 248 | 9.6 | 15.6 | 0.01 | 0.01 | 0.04 | 92 | 998.7 |
| 20260508003839 | 54 | 270 | 7.0 | 18.2 | 0.01 | 0.01 | 0.04 | 92 | 998.5 |
| 20260508003327 | 54 | 248 | 10.4 | 18.2 | 0.01 | 0.01 | 0.04 | 92 | 998.6 |
| 20260508002818 | 54 | 225 | 11.3 | 17.4 | 0.01 | 0.01 | 0.04 | 91 | 998.5 |
| 20260508002310 | 54 | 248 | 7.0 | 17.4 | 0.01 | 0.01 | 0.04 | 91 | 998.6 |
| 20260508001248 | 55 | 293 | 7.0 | 13.0 | 0.00 | 0.00 | 0.02 | 91 | 998.8 |
| 20260508000738 | 55 | 225 | 7.0 | 11.3 | 0.00 | 0.00 | 0.02 | 90 | 998.9 |
| 20260507235718 | 54 | 293 | 4.3 | 7.8 | 0.00 | 0.00 | 0.02 | 90 | 998.8 |
| 20260507235207 | 54 | 225 | 3.5 | 7.8 | 0.00 | 0.00 | 0.02 | 90 | 999.0 |
| 20260507234657 | 54 | 248 | 3.5 | 7.8 | 0.00 | 0.00 | 0.02 | 90 | 999.0 |
| 20260507234146 | 54 | 248 | 3.5 | 7.8 | 0.00 | 0.00 | 0.02 | 90 | 999.1 |
| 20260507233636 | 54 | 293 | 3.5 | 11.3 | 0.00 | 0.00 | 0.02 | 90 | 999.1 |
| 20260507233126 | 54 | 248 | 3.5 | 11.3 | 0.00 | 0.00 | 0.02 | 90 | 999.2 |
| 20260507232617 | 53 | 248 | 3.5 | 9.6 | 0.00 | 0.00 | 0.02 | 90 | 999.3 |
| 20260507232107 | 54 | 293 | 3.5 | 9.6 | 0.00 | 0.00 | 0.02 | 90 | 999.2 |
| 20260507231047 | 54 | 293 | 3.5 | 7.8 | 0.00 | 0.00 | 0.02 | 90 | 999.7 |
| 20260507230536 | 54 | 293 | 2.6 | 7.8 | 0.00 | 0.00 | 0.02 | 90 | 999.9 |
| 20260507230027 | 54 | 248 | 3.5 | 7.8 | 0.00 | 0.00 | 0.02 | 90 | 999.8 |
| 20260507225005 | 54 | 270 | 3.5 | 7.8 | 0.00 | 0.00 | 0.02 | 90 | 999.6 |
| 20260507224456 | 54 | 270 | 3.5 | 9.6 | 0.00 | 0.00 | 0.02 | 90 | 999.6 |
| 20260507223945 | 55 | 270 | 6.1 | 9.6 | 0.00 | 0.00 | 0.02 | 89 | 999.4 |
| 20260507223435 | 55 | 270 | 3.5 | 7.0 | 0.00 | 0.00 | 0.02 | 88 | 999.2 |
| 20260507222925 | 56 | 248 | 2.6 | 6.1 | 0.00 | 0.00 | 0.02 | 88 | 999.2 |
| 20260507222416 | 56 | 293 | 2.6 | 6.1 | 0.00 | 0.00 | 0.02 | 88 | 999.1 |
| 20260507221904 | 56 | 270 | 3.5 | 6.1 | 0.00 | 0.00 | 0.02 | 88 | 999.1 |
| 20260507221354 | 56 | 270 | 2.6 | 6.1 | 0.00 | 0.00 | 0.02 | 88 | 998.8 |
| 20260507215825 | 56 | 270 | 3.5 | 7.0 | 0.00 | 0.00 | 0.02 | 87 | 998.8 |
| 20260507215327 | 56 | 293 | 3.5 | 7.0 | 0.00 | 0.00 | 0.02 | 87 | 998.7 |
| 20260507214805 | 56 | 248 | 1.7 | 7.0 | 0.00 | 0.00 | 0.02 | 86 | 998.8 |
| 20260507214255 | 56 | 248 | 3.5 | 7.0 | 0.00 | 0.00 | 0.02 | 86 | 999.1 |
| 20260507213743 | 56 | 293 | 3.5 | 7.0 | 0.00 | 0.00 | 0.02 | 85 | 999.0 |
| 20260507213234 | 56 | 225 | 2.6 | 7.0 | 0.00 | 0.00 | 0.02 | 85 | 998.7 |
| 20260507212724 | 56 | 293 | 3.5 | 6.1 | 0.00 | 0.00 | 0.02 | 85 | 998.7 |
| 20260507212215 | 56 | 293 | 3.5 | 9.6 | 0.00 | 0.00 | 0.02 | 84 | 998.2 |
| 20260507211704 | 56 | 270 | 2.6 | 9.6 | 0.00 | 0.00 | 0.02 | 84 | 998.2 |
| 20260507210642 | 56 | 270 | 3.5 | 7.8 | 0.00 | 0.00 | 0.02 | 83 | 998.3 |
| 20260507210133 | 56 | 270 | 3.5 | 7.8 | 0.00 | 0.00 | 0.02 | 83 | 998.4 |
| 20260507205623 | 57 | 293 | 2.6 | 7.8 | 0.00 | 0.00 | 0.02 | 83 | 998.5 |
| 20260507205112 | 56 | 225 | 4.3 | 7.8 | 0.00 | 0.00 | 0.02 | 83 | 998.6 |
| 20260507204055 | 57 | 293 | 3.5 | 7.0 | 0.00 | 0.00 | 0.02 | 82 | 998.7 |
| 20260507203542 | 57 | 270 | 1.7 | 9.6 | 0.00 | 0.00 | 0.02 | 82 | 998.3 |
| 20260507203034 | 57 | 270 | 1.7 | 9.6 | 0.00 | 0.00 | 0.02 | 82 | 997.8 |
| 20260507202523 | 57 | 203 | 3.5 | 7.8 | 0.00 | 0.00 | 0.02 | 82 | 997.4 |
| 20260507202012 | 57 | 270 | 2.6 | 9.6 | 0.00 | 0.00 | 0.02 | 82 | 997.3 |
| 20260507201503 | 57 | 248 | 4.3 | 9.6 | 0.00 | 0.00 | 0.02 | 82 | 997.0 |
| 20260507200952 | 57 | 248 | 3.5 | 14.8 | 0.00 | 0.00 | 0.02 | 81 | 996.9 |
| 20260507200454 | 57 | 225 | 4.3 | 17.4 | 0.00 | 0.00 | 0.02 | 81 | 996.7 |
| 20260507195932 | 57 | 293 | 5.2 | 17.4 | 0.00 | 0.00 | 0.02 | 81 | 996.6 |
| 20260507195428 | 57 | 225 | 9.6 | 20.0 | 0.00 | 0.00 | 0.02 | 81 | 996.4 |
| 20260507194912 | 57 | 270 | 5.2 | 20.0 | 0.00 | 0.00 | 0.02 | 81 | 997.1 |
| 20260507194401 | 57 | 270 | 7.0 | 13.0 | 0.00 | 0.00 | 0.02 | 80 | 997.4 |
| 20260507193852 | 58 | 225 | 4.3 | 13.9 | 0.00 | 0.00 | 0.02 | 81 | 997.5 |
| 20260507192321 | 58 | 270 | 3.5 | 11.3 | 0.00 | 0.00 | 0.02 | 81 | 998.7 |
| 20260507191811 | 58 | 248 | 3.5 | 9.6 | 0.00 | 0.00 | 0.02 | 81 | 998.8 |
| 20260507191302 | 58 | 248 | 3.5 | 9.6 | 0.00 | 0.00 | 0.02 | 80 | 998.9 |
| 20260507190751 | 58 | 293 | 7.0 | 9.6 | 0.00 | 0.00 | 0.02 | 80 | 999.4 |
| 20260507190240 | 59 | 248 | 5.2 | 9.6 | 0.00 | 0.00 | 0.02 | 80 | 999.4 |
| 20260507185221 | 59 | 293 | 7.0 | 13.9 | 0.00 | 0.00 | 0.02 | 79 | 999.7 |
| 20260507184711 | 59 | 293 | 3.5 | 9.6 | 0.00 | 0.00 | 0.02 | 80 | 999.5 |
| 20260507184200 | 59 | 293 | 5.2 | 12.2 | 0.00 | 0.00 | 0.02 | 79 | 999.8 |
| 20260507183650 | 60 | 293 | 6.1 | 12.2 | 0.00 | 0.00 | 0.02 | 79 | 999.7 |
| 20260507183139 | 60 | 270 | 4.3 | 9.6 | 0.00 | 0.00 | 0.02 | 79 | 999.6 |
| 20260507182632 | 60 | 293 | 6.1 | 9.6 | 0.00 | 0.00 | 0.02 | 79 | 999.4 |
| 20260507182116 | 60 | 225 | 6.1 | 9.6 | 0.00 | 0.00 | 0.02 | 79 | 999.8 |
| 20260507181606 | 60 | 270 | 6.1 | 12.2 | 0.00 | 0.00 | 0.02 | 79 | 999.4 |
| 20260507181057 | 60 | 248 | 4.3 | 12.2 | 0.00 | 0.00 | 0.02 | 79 | 999.6 |
| 20260507180549 | 60 | 270 | 3.5 | 13.9 | 0.00 | 0.00 | 0.02 | 80 | 999.0 |
| 20260507180040 | 60 | 248 | 3.5 | 13.9 | 0.00 | 0.00 | 0.02 | 80 | 999.0 |
| 20260507175530 | 60 | 270 | 5.2 | 11.3 | 0.00 | 0.00 | 0.02 | 80 | 999.2 |
| 20260507175019 | 60 | 248 | 4.3 | 7.8 | 0.00 | 0.00 | 0.02 | 80 | 999.3 |
| 20260507174515 | 60 | 293 | 3.5 | 7.8 | 0.00 | 0.00 | 0.02 | 81 | 999.1 |
| 20260507174000 | 59 | 270 | 5.2 | 13.0 | 0.00 | 0.00 | 0.02 | 82 | 999.0 |
| 20260507173449 | 59 | 293 | 7.0 | 13.0 | 0.00 | 0.00 | 0.02 | 82 | 998.9 |
| 20260507172938 | 59 | 293 | 7.0 | 13.0 | 0.00 | 0.00 | 0.02 | 81 | 999.2 |
| 20260507172431 | 59 | 225 | 5.2 | 13.9 | 0.00 | 0.00 | 0.02 | 82 | 998.9 |
| 20260507171918 | 59 | 293 | 5.2 | 13.9 | 0.00 | 0.00 | 0.02 | 82 | 999.2 |
| 20260507171409 | 60 | 248 | 3.5 | 14.8 | 0.00 | 0.00 | 0.02 | 83 | 999.2 |
| 20260507170900 | 59 | 270 | 7.0 | 14.8 | 0.00 | 0.00 | 0.02 | 83 | 999.4 |
| 20260507170348 | 59 | 248 | 4.3 | 11.3 | 0.00 | 0.00 | 0.02 | 83 | 999.3 |
| 20260507165840 | 59 | 270 | 4.3 | 11.3 | 0.00 | 0.00 | 0.02 | 84 | 999.6 |
| 20260507165328 | 59 | 293 | 3.5 | 9.6 | 0.00 | 0.00 | 0.02 | 84 | 999.3 |
| 20260507164307 | 58 | 293 | 4.3 | 11.3 | 0.00 | 0.00 | 0.02 | 84 | 999.5 |
| 20260507163248 | 58 | 203 | 7.0 | 15.6 | 0.00 | 0.00 | 0.02 | 85 | 999.2 |
| 20260507162228 | 58 | 203 | 4.3 | 9.6 | 0.00 | 0.00 | 0.02 | 85 | 999.4 |
| 20260507161717 | 58 | 293 | 4.3 | 9.6 | 0.00 | 0.00 | 0.02 | 85 | 999.2 |
| 20260507161208 | 58 | 293 | 3.5 | 7.0 | 0.00 | 0.00 | 0.02 | 85 | 999.3 |
| 20260507160658 | 59 | 270 | 2.6 | 9.6 | 0.00 | 0.00 | 0.02 | 85 | 999.1 |
| 20260507155126 | 60 | 270 | 6.1 | 11.3 | 0.00 | 0.00 | 0.02 | 85 | 998.6 |
| 20260507154617 | 59 | 248 | 6.1 | 11.3 | 0.00 | 0.00 | 0.02 | 85 | 998.8 |
| 20260507154115 | 59 | 270 | 3.5 | 9.6 | 0.00 | 0.00 | 0.02 | 87 | 999.2 |
| 20260507153558 | 59 | 248 | 3.5 | 9.6 | 0.00 | 0.00 | 0.02 | 87 | 999.4 |
| 20260507153056 | 58 | 270 | 2.6 | 9.6 | 0.00 | 0.00 | 0.02 | 87 | 999.9 |
| 20260507152026 | 58 | 270 | 2.6 | 9.6 | 0.00 | 0.00 | 0.02 | 86 | 1000.1 |
| 20260507151516 | 58 | 270 | 6.1 | 9.6 | 0.00 | 0.00 | 0.02 | 86 | 1000.1 |
| 20260507151006 | 58 | 270 | 3.5 | 9.6 | 0.00 | 0.00 | 0.02 | 87 | 999.9 |
| 20260507150456 | 58 | 225 | 3.5 | 9.6 | 0.00 | 0.00 | 0.02 | 87 | 1000.0 |
| 20260507145945 | 57 | 270 | 6.1 | 11.3 | 0.00 | 0.00 | 0.02 | 87 | 1000.2 |
| 20260507145436 | 58 | 270 | 4.3 | 12.2 | 0.00 | 0.00 | 0.02 | 88 | 999.7 |
| 20260507144926 | 58 | 225 | 7.0 | 12.2 | 0.00 | 0.00 | 0.02 | 88 | 1000.3 |
| 20260507144415 | 58 | 203 | 6.1 | 9.6 | 0.00 | 0.00 | 0.02 | 89 | 999.9 |
| 20260507143355 | 58 | 293 | 4.3 | 11.3 | 0.00 | 0.00 | 0.02 | 90 | 1000.0 |
| 20260507142845 | 59 | 225 | 3.5 | 9.6 | 0.00 | 0.00 | 0.02 | 90 | 999.9 |
| 20260507142334 | 59 | 248 | 3.5 | 9.6 | 0.00 | 0.00 | 0.02 | 90 | 999.8 |
| 20260507141824 | 59 | 225 | 5.2 | 9.6 | 0.00 | 0.00 | 0.02 | 90 | 999.8 |
| 20260507140804 | 59 | 270 | 2.6 | 9.6 | 0.00 | 0.00 | 0.02 | 90 | 1000.1 |
| 20260507140254 | 59 | 270 | 1.7 | 9.6 | 0.00 | 0.00 | 0.02 | 90 | 999.7 |